Regional Weather Roundup
Issued by NWS

Home | Current Version | Previous Version | Text Only | Print | Product List | Glossary On
Versions: 1 2 3 4 5 6 7 8 9 10 11 12 13 14 15 16 17 18 19 20 21 22 23 24 25 26 27 28 29 30 31 32 33 34 35 36 37 38 39 40 41 42 43 44 45 46 47 48 49 50
000
ASUS45 KABQ 020910
RWRNM
WEATHER ROUNDUP FOR NEW MEXICO
NATIONAL WEATHER SERVICE ALBUQUERQUE NM
300 AM MDT SAT AUG 02 2014

NOTE: "FAIR" MEANS FEW OR NO CLOUDS BELOW 12,000 FEET AGL WITH NO
       SIGNIFICANT WEATHER OR OBSTRUCTIONS TO VISION.

      THIS PRODUCT IS RELEASED AS TWO VERSIONS.  ONE VERSION NEAR
      THE TOP OF THE HOUR CONTAINING PRELIMINARY DATA FROM ALBUQUERQUE
      AND OTHER STATIONS.  A FINAL VERSION WITH ADDITIONAL DATA IS
      ISSUED ABOUT 10 MINUTES AFTER THE HOUR.

NMZ501-503-504-510>518-021000-
NORTHWEST PLATEAU/NORTHCENTRAL MOUNTAINS

CITY           SKY/WX    TMP DP  RH WIND       PRES   REMARKS
FARMINGTON     CLEAR     64  52  64 E14       30.23S
LOS ALAMOS     MOCLDY    56  52  86 S10       30.40S
SANTA FE       CLOUDY    59  56  89 SE6       30.35S
TAOS           MOCLDY    54  48  82 SE5       30.40R
ANGEL FIRE     CLOUDY    52  48  89 W5        30.47S

$$
NMZ402-403-502-505>509-021000-
WESTCENTRAL MOUNTAINS/SOUTHWEST MOUNTAINS

CITY           SKY/WX    TMP DP  RH WIND       PRES   REMARKS
GALLUP         MOCLDY    59  53  80 CALM      30.29R
SILVER CITY    CLOUDY    64  63  94 CALM      30.25S

$$
NMZ407-409-411-412-021000-
SOUTHERN DESERTS

CITY           SKY/WX    TMP DP  RH WIND       PRES   REMARKS
LORDSBURG      PTSUNNY   64  63  94 N3        30.16S
DEMING         CLOUDY    69  64  84 E9        30.16F
LAS CRUCES     CLOUDY    69  62  79 NE3       30.19S
HOLLOMAN AFB   CLOUDY    68  66  94 NE5       30.16F
ALAMOGORDO     MOCLDY    68  63  83 N6        30.18F
T OR C         CLOUDY    69  60  73 SE5       30.21S

$$
NMZ519>523-021000-
CENTRAL VALLEYS/CENTRAL HIGHLANDS

CITY           SKY/WX    TMP DP  RH WIND       PRES   REMARKS
ALBUQUERQUE    LGT RAIN  63  58  83 E14       30.27F
DOUBLE EAGLE   CLOUDY    60  57  90 S6        30.31S
MORIARTY ARPT  RAIN      59  56  92 CALM      30.36F
CLINES CORNERS LGT RAIN  56  55  97 E5        30.38F
BELEN          LGT RAIN  62  61  96 CALM      30.27F
SOCORRO        CLOUDY    69  60  72 N12       30.23S

$$
NMZ524>526-539-540-021000-
SOUTHCENTRAL MOUNTAINS

CITY           SKY/WX    TMP DP  RH WIND       PRES   REMARKS
RUIDOSO        CLOUDY    57  55  94 CALM      30.37F

$$
NMZ527>531-021000-
NORTHEAST HIGHLANDS/NORTHEAST PLAINS

CITY           SKY/WX    TMP DP  RH WIND       PRES   REMARKS
LAS VEGAS      CLOUDY    54  52  93 S5        30.39S
RATON          CLOUDY    57  54  89 N5        30.36R
CLAYTON        MOCLDY    63  54  72 W5        30.28R

$$
NMZ532>537-021000-
EASTCENTRAL PLAINS

CITY           SKY/WX    TMP DP  RH WIND       PRES   REMARKS
TUCUMCARI      MOCLDY    68  51  54 NW3       30.22S
CANNON AFB     CLOUDY    65  49  56 NE5       30.24S
CLOVIS AIRPORT NOT AVBL

$$
NMZ028-029-538-021000-
SOUTHEAST PLAINS

CITY           SKY/WX    TMP DP  RH WIND       PRES   REMARKS
ROSWELL        CLOUDY    71  65  81 N5        30.18S
ARTESIA        CLOUDY    68  66  94 NW6       30.17F
CARLSBAD       CLOUDY    70  66  87 W7        30.14F
HOBBS          CLOUDY    72  50  46 E8        30.18S


$$



USA.gov is the U.S. government's official web portal to all federal, state and local government web resources and services.